Location: Cahas Mountain Overlook
(37.0833°N, 80.1000°W)
Time: 07:33:36
(UTC-05:00)

BlueWalker 3 - Visible Passes

Search period start: 16 January 2026 00:00
Search period end: 26 January 2026 00:00
Orbit: 451 x 463 km, 53.2° (Epoch: 16 January)

Date Brightness Start Highest point End Pass type
(mag) Time Alt. Az. Time Alt. Az. Time Alt. Az.
17 Jan 3.4 19:19:26 10° SSW 19:21:14 24° S 19:21:14 24° S visible
18 Jan 2.9 18:44:26 10° S 18:47:26 26° SE 18:47:53 25° ESE visible
18 Jan 5.2 20:21:39 10° W 20:21:40 10° W 20:21:40 10° W visible
19 Jan 3.4 18:09:36 10° S 18:12:10 19° SE 18:14:28 11° E visible
19 Jan 3.7 19:46:05 10° WSW 19:48:14 29° W 19:48:14 29° W visible
20 Jan 2.3 19:10:34 10° WSW 19:14:04 52° NW 19:14:43 45° N visible
21 Jan 1.8 18:35:09 10° SW 18:38:42 72° NW 18:41:07 19° NE visible
22 Jan 1.7 17:59:47 10° SW 18:03:20 82° SE 18:06:54 10° NE visible
22 Jan 4.2 19:39:03 10° WNW 19:41:11 15° NNW 19:41:11 15° NNW visible
23 Jan 4.0 19:03:12 10° WNW 19:05:44 18° NNW 19:07:25 14° N visible
24 Jan 3.7 18:27:24 10° W 18:30:15 22° NNW 18:33:07 10° NNE visible
